[[{"header":{"parameterUnit":"m.s-1","parameterCategory":1,"la1":30.2991,"la2":30.254,"lo1":-89.0895,"lo2":-89.0444,"dy":0.0017,"dx":0.0017,"nx":28,"ny":28,"refTime":"2024-07-22T03:00:00:Z","depth":0,"parameterNumber":2,"parameterNumberName":"U-component_of_WINDS"},"data":[0,0,0,0,0,0,0,0,0,0,0,0,0,0,0,0,0,0,0,0,0,0,0,0,0,0,0,0,0,0,0,0,0,0,0,0,0,0,0,0,0,0,0,0,0,0,0,0,0,0,0,0,0,0,0,0,0,0,2.4949,2.4949,0,2.4973,2.4973,2.4973,2.4938,2.4937,2.4936,2.4935,2.4959,2.4961,2.4962,0,0,0,0,0,0,0,0,0,0,0,0,0,2.4871,2.4873,2.4949,2.4949,2.495,2.4973,2.4973,2.4973,2.4938,2.4937,2.4936,2.4934,2.4958,2.496,2.4963,0,0,0,0,0,0,0,0,0,0,0,0,0,2.4901,2.4874,2.4949,2.4935,2.4934,2.4972,2.4973,2.4973,2.4939,2.4937,2.4935,2.4933,2.4958,2.496,2.4963,2.5016,0,0,2.4971,2.4972,0,0,0,0,0,0,0,0,2.4899,2.4904,2.4937,2.4936,2.4935,2.4951,2.4954,2.4988,2.4939,2.4937,2.4935,2.4933,2.4958,2.496,2.4969,2.5017,2.5018,2.4971,2.4973,2.4974,2.4975,0,0,0,0,0,0,0,2.4897,2.4903,2.4958,2.4937,2.4936,2.4927,2.4929,2.496,2.4957,2.4937,2.4935,2.4938,2.4957,2.4966,2.4969,2.5019,2.4971,2.4974,2.4975,2.4976,2.5107,2.5109,0,0,0,0,0,0,2.4897,2.4901,2.4958,2.4959,2.4912,2.493,2.4932,2.4947,2.4957,2.4957,2.4939,2.4936,2.4963,2.4966,2.497,2.5029,2.4974,2.4977,2.4978,2.5105,2.5107,2.5109,0,0,0,0,0,0,2.4896,2.4903,2.4957,2.4929,2.4936,2.4933,2.495,2.4949,2.4958,2.4959,2.4958,2.495,2.4961,2.4966,2.5004,2.5029,2.4978,2.498,2.5103,2.5106,2.5108,2.515,0,0,0,0,0,0,2.4894,2.4902,2.4923,2.493,2.4937,2.4991,2.4952,2.4951,2.4963,2.4959,2.4968,2.4968,2.496,2.5,2.5006,2.5032,2.4982,2.51,2.5104,2.5107,2.5146,2.5154,2.5161,0,0,0,0,0,2.4891,2.4935,2.4925,2.4932,2.4964,2.4993,2.4997,2.4987,2.4965,2.4985,2.4985,2.4967,2.5026,2.5004,2.5011,2.5038,2.5099,2.5103,2.5107,2.5143,2.5153,2.516,0,0,0,0,0,0,2.4933,2.4936,2.4924,2.4972,2.4982,2.4987,2.5012,2.4998,2.5015,2.501,2.4997,2.4999,2.5039,2.5043,2.5018,2.5088,2.5058,2.5064,2.5084,2.5092,2.5099,2.5097,2.4985,0,0,0,0,0,2.4948,2.4971,2.4973,2.5015,2.5021,2.5016,2.5028,2.5019,2.5029,2.5033,2.5036,2.5046,2.5066,2.508,2.5099,2.5147,2.5147,2.5169,2.5176,2.5182,2.5186,2.5208,2.5216,2.5123,2.5123,2.5123,0,0,2.4978,2.4983,2.4999,2.5023,2.503,2.5053,2.502,2.5047,2.5064,2.5038,2.5072,2.5074,2.5085,2.5127,2.5145,2.5131,2.5212,2.5187,2.5192,2.5193,2.5213,2.5222,2.523,2.5126,2.5125,2.5125,0,0,2.5046,2.5053,2.5087,2.5093,2.5103,2.5099,2.5107,2.5113,2.5113,2.5148,2.5127,2.5147,2.5183,2.519,2.5198,2.5264,2.5247,2.527,2.5307,2.5328,2.5335,2.5341,2.5361,2.5369,2.5275,2.5275,2.5276,0,2.5083,2.5118,2.5106,2.5133,2.5143,2.512,2.5152,2.5159,2.5175,2.5182,2.5166,2.5207,2.5213,2.5254,2.527,2.5279,2.5285,2.5269,2.5335,2.5341,2.5347,2.5366,2.5374,2.5278,2.5278,2.5277,2.5277,0,2.516,2.5185,2.5211,2.5224,2.5237,2.5268,2.5259,2.5273,2.5263,2.526,2.5293,2.5299,2.5316,2.5326,2.5317,2.5365,2.5355,2.5337,2.5307,2.5359,2.5376,2.5383,2.5282,2.5281,2.528,2.5279,0,0,2.5256,2.526,2.527,2.5274,2.5282,2.53,2.5327,2.5344,2.5354,2.5366,2.5387,2.5416,2.5398,2.5408,2.5399,2.5418,2.5465,2.5397,2.5397,2.5407,2.5513,2.5524,2.5533,2.5454,2.5456,2.5457,2.5511,0,2.532,2.5367,2.5355,2.5402,2.5422,2.5398,2.5422,2.5428,2.5426,2.5441,2.5439,2.5458,2.5435,2.544,2.5458,2.5455,2.5485,2.5452,2.5471,2.5472,2.5467,2.5543,2.5556,2.5607,2.5518,2.552,2.552,0,2.5401,2.5413,2.546,2.5461,2.5469,2.549,2.5502,2.5519,2.5524,2.5521,2.5529,2.5516,2.5541,2.5512,2.5545,2.5522,2.5529,2.5529,2.5531,2.553,2.5498,2.5542,2.5624,2.563,2.5532,2.5531,2.553,0,2.5461,2.5489,2.552,2.5525,2.5527,2.5542,2.5544,2.5548,2.5557,2.5567,2.5572,2.5586,2.5593,2.5604,2.5593,2.5574,2.5626,2.5598,2.5622,2.5622,2.5633,2.5632,2.5714,2.5642,2.5642,2.5642,2.5642,0,2.5532,2.5561,2.5546,2.5565,2.5596,2.5582,2.5613,2.5612,2.5615,2.5632,2.5614,2.563,2.5616,2.5631,2.5623,2.5649,2.5654,2.565,2.5647,2.565,2.565,2.5653,2.5648,2.5644,2.5644,2.5643,2.5643,0,2.5604,2.5595,2.5627,2.5625,2.5625,2.5648,2.5646,2.5663,2.5658,2.5679,2.5683,2.5676,2.5691,2.5682,2.57,2.5694,2.5727,2.5721,2.5725,2.5722,2.5745,2.5742,2.5831,2.584,2.5765,2.5766,2.5766,0,2.5648,2.567,2.567,2.5679,2.5681,2.5698,2.5706,2.5692,2.5702,2.5708,2.5723,2.5737,2.5747,2.5773,2.5768,2.578,2.5772,2.5802,2.5774,2.5775,2.5768,2.5766,2.5767,2.5807,2.5808,2.5809,2.5809,0,2.5727,2.5721,2.5734,2.5744,2.5754,2.5762,2.5768,2.5777,2.5763,2.5774,2.5789,2.5797,2.5812,2.5825,2.5834,2.5835,2.5819,2.5818,2.5824,2.5826,2.5826,2.5823,2.5737,2.5816,2.5815,2.5815,2.5815,2.5814,2.5784,2.58,2.5802,2.5815,2.5818,2.5823,2.5837,2.5833,2.5845,2.5856,2.5847,2.5864,2.5866,2.5877,2.5879,2.5892,2.5879,2.5889,2.589,2.5892,2.5894,2.5826,2.5894,2.5893,2.5893,2.5893,2.5893,0,2.5859,2.5858,2.5871,2.5878,2.5888,2.5872,2.5877,2.5886,2.5901,2.5904,2.5914,2.5929,2.5941,2.5936,2.5946,2.5957,2.5949,2.5959,2.5957,2.5957,2.5906,2.5898,2.5965,2.5965,2.5965,2.5965,2.5965,2.5965,2.5899,2.5924,2.5917,2.5943,2.5941,2.5957,2.5961,2.5964,2.5966,2.5984,2.5993,2.599,2.5989,2.5998,2.6007,2.6005,2.6009,2.6021,2.6016,2.5968,2.5961,2.5954,2.5947,2.6022,2.6022,2.6066,2.6066,2.6066]},{"header":{"parameterUnit":"m.s-1","parameterCategory":1,"la1":30.2991,"la2":30.254,"lo1":-89.0895,"lo2":-89.0444,"dy":0.0017,"dx":0.0017,"nx":28,"ny":28,"refTime":"2024-07-22T03:00:00:Z","depth":0,"parameterNumber":3,"parameterNumberName":"V-component_of_WINDS"},"data":[0,0,0,0,0,0,0,0,0,0,0,0,0,0,0,0,0,0,0,0,0,0,0,0,0,0,0,0,0,0,0,0,0,0,0,0,0,0,0,0,0,0,0,0,0,0,0,0,0,0,0,0,0,0,0,0,0,0,4.6065,4.6065,0,4.6095,4.6096,4.6096,4.6048,4.6047,4.6045,4.6043,4.6071,4.6073,4.6075,0,0,0,0,0,0,0,0,0,0,0,0,0,4.5961,4.5963,4.6065,4.6065,4.6066,4.6095,4.6096,4.6096,4.6049,4.6047,4.6045,4.6043,4.607,4.6073,4.6075,0,0,0,0,0,0,0,0,0,0,0,0,0,4.6,4.5963,4.6065,4.6046,4.6044,4.6095,4.6096,4.6096,4.6049,4.6046,4.6044,4.6042,4.6069,4.6073,4.6076,4.6146,0,0,4.6086,4.6088,0,0,0,0,0,0,0,0,4.5998,4.6004,4.6048,4.6047,4.6046,4.6066,4.6069,4.6113,4.605,4.6047,4.6043,4.6041,4.6071,4.6074,4.6085,4.6147,4.6148,4.6086,4.6089,4.609,4.6091,0,0,0,0,0,0,0,4.5995,4.6002,4.6077,4.6049,4.6047,4.6034,4.6037,4.6077,4.6072,4.6047,4.6044,4.6048,4.607,4.6082,4.6085,4.6149,4.6086,4.6089,4.6091,4.6093,4.6267,4.6269,0,0,0,0,0,0,4.5995,4.6,4.6076,4.6078,4.6015,4.6038,4.6041,4.6062,4.6072,4.6071,4.605,4.6046,4.6077,4.6081,4.6086,4.6166,4.609,4.6093,4.6095,4.6264,4.6267,4.627,0,0,0,0,0,0,4.5993,4.6002,4.6075,4.6038,4.6046,4.6042,4.6066,4.6063,4.6075,4.6074,4.6073,4.6064,4.6075,4.6081,4.6131,4.6166,4.6095,4.6098,4.6261,4.6265,4.6269,4.6329,0,0,0,0,0,0,4.599,4.6002,4.603,4.6039,4.6048,4.6121,4.6068,4.6066,4.6082,4.6076,4.6086,4.6086,4.6074,4.6126,4.6134,4.617,4.61,4.6258,4.6263,4.6268,4.6324,4.6334,4.6343,0,0,0,0,0,4.5987,4.6046,4.6032,4.6041,4.6083,4.6123,4.6128,4.6114,4.6085,4.6112,4.6111,4.6085,4.6162,4.6132,4.614,4.6178,4.6256,4.6262,4.6267,4.6319,4.6332,4.6343,0,0,0,0,0,0,4.604,4.6046,4.6031,4.6095,4.6109,4.6115,4.6148,4.6129,4.6151,4.6145,4.6126,4.6128,4.6181,4.6185,4.6151,4.6244,4.6203,4.6211,4.624,4.6252,4.6262,4.6259,4.6103,0,0,0,0,0,4.6059,4.6092,4.6096,4.6151,4.6159,4.6153,4.617,4.6158,4.6171,4.6176,4.6179,4.6191,4.6218,4.6236,4.626,4.6325,4.6324,4.6354,4.6364,4.6372,4.6378,4.641,4.6422,4.6289,4.6289,4.6289,0,0,4.6099,4.6106,4.6128,4.6162,4.6171,4.6204,4.6158,4.6195,4.6218,4.6181,4.6228,4.623,4.6243,4.63,4.6325,4.6304,4.6415,4.638,4.6386,4.6388,4.6417,4.643,4.6441,4.6293,4.6293,4.6292,0,0,4.6187,4.6198,4.6244,4.6254,4.6269,4.6264,4.6275,4.6284,4.6285,4.6331,4.6304,4.6331,4.6378,4.6387,4.6398,4.6488,4.6465,4.6497,4.6548,4.6579,4.6589,4.6598,4.6628,4.6639,4.6504,4.6504,4.6504,0,4.6234,4.6283,4.627,4.6308,4.6322,4.6292,4.6337,4.6347,4.6369,4.6379,4.6356,4.6413,4.6419,4.6476,4.6498,4.6509,4.6519,4.6495,4.6589,4.6598,4.6606,4.6634,4.6646,4.6507,4.6507,4.6507,4.6506,0,4.6338,4.6373,4.6408,4.6431,4.6449,4.6491,4.6482,4.6502,4.6488,4.6485,4.6532,4.6539,4.6563,4.6576,4.6564,4.6631,4.6617,4.6592,4.655,4.6623,4.6648,4.6659,4.6513,4.6511,4.651,4.6509,0,0,4.646,4.6474,4.6487,4.6495,4.6509,4.6535,4.6574,4.6599,4.6615,4.6631,4.6662,4.6702,4.6678,4.6691,4.6679,4.6706,4.6774,4.6677,4.6677,4.6692,4.6845,4.6862,4.6875,4.6759,4.6761,4.6763,4.6843,0,4.6546,4.6614,4.6603,4.6668,4.6698,4.6669,4.6703,4.6714,4.6712,4.6736,4.6734,4.6761,4.673,4.6736,4.6763,4.676,4.6804,4.6755,4.6785,4.6786,4.678,4.6889,4.6907,4.6982,4.6853,4.6855,4.6856,0,4.6655,4.6675,4.6744,4.6751,4.6763,4.6794,4.6814,4.6838,4.6849,4.6846,4.6859,4.6842,4.6879,4.6838,4.6887,4.6854,4.6866,4.6867,4.6869,4.6869,4.6824,4.6889,4.7006,4.7016,4.6873,4.6871,4.687,0,4.6732,4.6777,4.6823,4.6832,4.6842,4.6864,4.6869,4.6878,4.6893,4.6911,4.6919,4.6941,4.6952,4.6969,4.6957,4.6929,4.7007,4.6966,4.7003,4.7003,4.7018,4.7017,4.7136,4.7031,4.7031,4.7031,4.703,0,4.6827,4.687,4.6858,4.6886,4.6932,4.6918,4.6963,4.6965,4.6973,4.6999,4.6976,4.7001,4.6985,4.7008,4.6999,4.704,4.7046,4.7042,4.7039,4.7043,4.7043,4.7048,4.7042,4.7034,4.7033,4.7032,4.7032,0,4.6921,4.6915,4.6963,4.6969,4.6971,4.7005,4.7009,4.7034,4.7031,4.7064,4.7071,4.7065,4.7091,4.7082,4.711,4.7104,4.7154,4.7146,4.7151,4.7147,4.7183,4.7179,4.7308,4.7323,4.7211,4.7212,4.7213,0,4.6981,4.7013,4.7022,4.7038,4.7045,4.7072,4.7087,4.7074,4.709,4.7105,4.7127,4.7152,4.717,4.7213,4.721,4.7231,4.722,4.7264,4.7223,4.7225,4.7218,4.7215,4.7217,4.7272,4.7273,4.7274,4.7275,0,4.7086,4.7081,4.7104,4.7126,4.7144,4.7161,4.7175,4.7189,4.7176,4.7196,4.7222,4.7237,4.7265,4.7288,4.7307,4.731,4.7289,4.7288,4.7297,4.73,4.7301,4.7298,4.717,4.7285,4.7284,4.7283,4.7282,4.7282,4.7162,4.7188,4.7198,4.7224,4.7233,4.7247,4.727,4.727,4.7292,4.7314,4.7305,4.7335,4.7344,4.7366,4.7373,4.7395,4.7377,4.7391,4.7394,4.7397,4.7401,4.73,4.7398,4.7398,4.7398,4.7398,4.7397,0,4.7264,4.7269,4.7293,4.7313,4.7333,4.7314,4.7328,4.7345,4.7372,4.7382,4.7401,4.743,4.7453,4.7452,4.7472,4.749,4.7481,4.7496,4.7493,4.7493,4.7416,4.7405,4.7503,4.7502,4.7502,4.7502,4.7502,4.7502,4.7319,4.7361,4.7357,4.7403,4.7407,4.7437,4.7446,4.7458,4.7465,4.75,4.7518,4.7518,4.7523,4.7544,4.7563,4.7562,4.7569,4.7587,4.7582,4.751,4.7499,4.7489,4.7478,4.7589,4.7589,4.7657,4.7657,4.7658]}]]